Location: Martley
(52.2333°N, 2.3667°W)
Time: 12:48:28
(UTC+00:00)

Cosmos 1743 - Pass Details

Date: 11 December 2019
Orbit: 511 x 527 km, 82.6° (Epoch: 26 January)

Event Time Altitude Azimuth Distance (km) Brightness Sun altitude
Rises 07:15:57 0° 178° (S) 2,614 6.7 -7.5°
Reaches altitude 10° 07:18:05 10° 174° (S) 1,734 5.9 -7.2°
Maximum altitude 07:21:48 56° 96° (E) 622 3.5 -6.7°
Drops below altitude 10° 07:25:34 10° 18° (NNE) 1,755 5.3 -6.2°
Sets 07:27:44 0° 14° (NNE) 2,650 6.1 -6.0°
